Location: Downe
(51.3167°N, 0.0500°E)
Time: 16:19:03
(UTC+00:00)

Cosmos 2151 - Pass Details

Date: 17 November 2019
Orbit: 581 x 602 km, 82.5° (Epoch: 14 December)

Event Time Altitude Azimuth Distance (km) Brightness Sun altitude
Rises 05:02:24 0° 184° (S) 2,841 6.5 -21.2°
Reaches altitude 10° 05:04:35 10° 183° (S) 1,944 5.6 -20.8°
Maximum altitude 05:08:53 75° 98° (E) 629 3.1 -20.2°
Drops below altitude 10° 05:13:13 10° 13° (NNE) 1,958 5.7 -19.5°
Sets 05:15:26 0° 12° (NNE) 2,864 6.6 -19.2°
